Torna al catalogo

METEOR 2-17 DEB

AttivoPO
NORAD 35367·DEBRIS·🇷🇺 Russia

Lanciato Jan 30, 1988 da Plesetsk Cosmodrome

Loading…

Prossimi Passaggi (prossime 24 ore)

TLE

AggiornatoSource: Space-Track

Epoca: Sep 14, 2026, 13:12 UTC

1 35367U 88005AB  26257.55054720  .00001461  00000-0  98364-3 0  9990
2 35367  82.5208 191.0835 0023165  64.4455  60.7500 13.99843161346199

Traccia METEOR 2-17 DEB in tempo reale con AllMySat

Download on the App Store